This is the latest recevied weather packets stored in our database for station/object KB5DPX. If no packets are shown the sender has not sent any weather packets the latest 1 day(s).
| Time | Temp. | Humidity | Pressure | Rain* | Wind** | Luminosity | Snow |
|---|---|---|---|---|---|---|---|
| 1778006565 | 9.44° C | 54% | 1007 hPa | 0 mm | 6.26 m/s, 299° | 918 W/m² | - |
| 1778006250 | 9.44° C | 55% | 1007 hPa | 0 mm | 4.47 m/s, 299° | 926 W/m² | - |
| 1778005964 | 9.44° C | 56% | 1007 hPa | 0 mm | 5.36 m/s, 270° | 926 W/m² | - |
| 1778005659 | 9.44° C | 56% | 1006.9 hPa | 0 mm | 5.36 m/s, 273° | 932 W/m² | - |
| 1778005342 | 8.89° C | 61% | 1006.9 hPa | 0 mm | 5.36 m/s, 309° | 935 W/m² | - |
| 1778005069 | 8.89° C | 60% | 1006.9 hPa | 0 mm | 5.81 m/s, 289° | 937 W/m² | - |
| 1778004753 | 8.33° C | 61% | 1006.9 hPa | 0 mm | 5.81 m/s, 286° | 944 W/m² | - |
| 1778004458 | 8.33° C | 61% | 1006.9 hPa | 0 mm | 5.81 m/s, 284° | 947 W/m² | - |
| 1778004143 | 8.33° C | 61% | 1006.8 hPa | 0 mm | 6.26 m/s, 279° | 974 W/m² | - |
| 1778003848 | 8.33° C | 61% | 1006.9 hPa | 0 mm | 5.81 m/s, 286° | 962 W/m² | - |
| 1778003562 | 7.78° C | 64% | 1006.8 hPa | 0 mm | 6.26 m/s, 284° | 976 W/m² | - |
| 1778003246 | 7.78° C | 63% | 1006.8 hPa | 0 mm | 5.36 m/s, 304° | 972 W/m² | - |
| 1778002955 | 7.78° C | 64% | 1006.7 hPa | 0 mm | 6.26 m/s, 292° | 967 W/m² | - |
| 1778002659 | 7.78° C | 66% | 1006.6 hPa | 0 mm | 4.92 m/s, 276° | 963 W/m² | - |
| 1778002362 | 7.78° C | 65% | 1006.6 hPa | 0 mm | 5.36 m/s, 290° | 969 W/m² | - |
| 1778002059 | 7.78° C | 65% | 1006.7 hPa | 0 mm | 5.36 m/s, 278° | 965 W/m² | - |
| 1778001764 | 7.78° C | 63% | 1006.6 hPa | 0 mm | 5.81 m/s, 292° | 977 W/m² | - |
| 1778001449 | 7.78° C | 64% | 1006.6 hPa | 0 mm | 5.81 m/s, 279° | 958 W/m² | - |
| 1778001163 | 7.78° C | 64% | 1006.6 hPa | 0 mm | 6.71 m/s, 271° | 962 W/m² | - |
| 1778000863 | 7.78° C | 64% | 1006.5 hPa | 0 mm | 5.81 m/s, 282° | 979 W/m² | - |
| 1778000546 | 7.78° C | 65% | 1006.5 hPa | 0 mm | 4.92 m/s, 261° | 960 W/m² | - |
| 1778000267 | 7.78° C | 65% | 1006.5 hPa | 0 mm | 4.47 m/s, 286° | 962 W/m² | - |
| 1777999952 | 7.78° C | 64% | 1006.4 hPa | 0 mm | 4.92 m/s, 296° | 958 W/m² | - |
| 1777999664 | 7.78° C | 66% | 1006.4 hPa | 0 mm | 4.02 m/s, 287° | 947 W/m² | - |
| 1777999347 | 7.78° C | 65% | 1006.3 hPa | 0 mm | 3.58 m/s, 281° | 940 W/m² | - |
* Rain latest hour (hover to see other rain measurements)
** Current wind speed in m/s (hover to see current wind gust speed)